This is the latest recevied weather packets stored in our database for station/object VANOK. If no packets are shown the sender has not sent any weather packets the latest 10 day(s).
| Time | Temp. | Humidity | Pressure | Rain* | Wind** | Luminosity | Snow |
|---|---|---|---|---|---|---|---|
| 1777414010 | 2.78° C | 67% | 1025 hPa | - | - | - | - |
| 1777412810 | 3.33° C | 63% | 1024.9 hPa | - | - | - | - |
| 1777411610 | 2.78° C | 59% | 1024.8 hPa | - | - | - | - |
| 1777410410 | 3.33° C | 59% | 1024.6 hPa | - | - | - | - |
| 1777409211 | 3.89° C | 55% | 1024.5 hPa | - | - | - | - |
| 1777408010 | 3.89° C | 56% | 1024.3 hPa | - | - | - | - |
| 1777406810 | 3.89° C | 58% | 1024.2 hPa | - | - | - | - |
| 1777405610 | 4.44° C | 52% | 1023.9 hPa | - | - | - | - |
| 1777404410 | 4.44° C | 53% | 1023.7 hPa | - | - | - | - |
| 1777403209 | 4.44° C | 59% | 1023.5 hPa | - | - | - | - |
| 1777402010 | 4.44° C | 60% | 1023.2 hPa | - | - | - | - |
| 1777400809 | 4.44° C | 59% | 1023 hPa | - | - | - | - |
| 1777399610 | 5° C | 54% | 1022.6 hPa | - | - | - | - |
| 1777398409 | 5° C | 54% | 1022.4 hPa | - | - | - | - |
| 1777397209 | 5° C | 56% | 1022.2 hPa | - | - | - | - |
| 1777396009 | 5.56° C | 54% | 1021.9 hPa | - | - | - | - |
| 1777394809 | 5.56° C | 56% | 1021.8 hPa | - | - | - | - |
| 1777393609 | 5.56° C | 53% | 1021.7 hPa | - | - | - | - |
| 1777392409 | 6.11° C | 53% | 1021.6 hPa | - | - | - | - |
| 1777391209 | 5.56° C | 56% | 1021.5 hPa | - | - | - | - |
| 1777390009 | 5.56° C | 56% | 1021.5 hPa | - | - | - | - |
| 1777388809 | 5.56° C | 56% | 1021.6 hPa | - | - | - | - |
| 1777387609 | 5.56° C | 57% | 1021.6 hPa | - | - | - | - |
| 1777386409 | 5.56° C | 57% | 1021.6 hPa | - | - | - | - |
| 1777385208 | 5.56° C | 56% | 1021.6 hPa | - | - | - | - |
* Rain since midnight (hover to see other rain measurements)
** Current wind speed in m/s (hover to see current wind gust speed)